Regional Weather Roundup
Issued by NWS Portland, ME

Current Version | Previous Version | Text Only | Print | Product List | Glossary On
Versions: 1 2 3 4 5 6 7 8 9 10 11 12 13 14 15 16 17 18 19 20 21 22 23 24 25 26 27 28 29 30 31 32 33 34 35 36 37 38 39 40 41 42 43 44 45 46 47 48 49 50
000
ASUS41 KGYX 251610
RWRGYX
WEATHER ROUNDUP FOR MAINE AND NEW HAMPSHIRE
NATIONAL WEATHER SERVICE GRAY ME
1200 PM EDT SUN SEP 25 2016

MEZ002-005-006-010-012-015-018-020-021-024-026-027-029-251700-
MAINE

CITY           SKY/WX    TMP DP  RH WIND       PRES   REMARKS
PORTLAND       MOSUNNY   61  32  33 NW17G24   30.08F
SANFORD        SUNNY     60  34  37 NW10      30.09F
BAR HARBOR     CLOUDY   N/A N/A N/A N13       30.02S
WISCASSET      PTSUNNY   60  34  37 NW8       30.06F
ROCKLAND       CLOUDY    56  37  49 VRB7      30.03F
FRYEBURG       SUNNY     57  31  37 N15G24    30.10R
LEWISTONAUBURN SUNNY     57  34  41 N15       30.07S
AUGUSTA        MOSUNNY   58  33  39 N18G28    30.05F
WATERVILLE     PTSUNNY   55  36  48 N13G21    30.03S
BANGOR         PTSUNNY   54  36  50 NW15G25   30.02F
GREENVILLE       N/A     47  38  71 NW18G26   30.00S
MILLINOCKET    CLOUDY    53  34  48 N13       30.01S
HOULTON        CLOUDY    50  37  61 N12G22    29.97S
PRESQUE ISLE   MOSUNNY   51  38  60 N17       29.98F
FRENCHVILLE    LGT RAIN  47  38  71 NW16G23   29.98S
CARIBOU        MOSUNNY   51  37  58 MISG      29.96F
$$

NHZ002-005-008-009-011-012-014-251700-
NEW HAMPSHIRE

CITY           SKY/WX    TMP DP  RH WIND       PRES   REMARKS
PORTSMOUTH     MOSUNNY   61  33  35 NW16G22   30.08F
ROCHESTER      SUNNY     60  34  37 NW13G21   30.09S
NASHUA         SUNNY     60  34  37 NW13G18   30.13F
MANCHESTER     MOSUNNY   59  32  36 NW17G23   30.12F
CONCORD        SUNNY     60  32  34 NW16      30.13F
LACONIA        SUNNY     55  35  47 NW12G17   30.13R
PLYMOUTH       FAIR      55  35  47 NW10G22   30.12F
BERLIN         MOSUNNY   52  31  44 NW10G25   30.10S
WHITEFIELD     PTSUNNY   52  35  52 W7        30.13S
JAFFREY        SUNNY     56  32  40 NW10G17   30.15F
KEENE          MOSUNNY   58  36  43 NW8G16    30.15F
LEBANON        SUNNY     59  32  36 N12G24    30.15F
MT WASHINGTON  FOG       25  25 100 NW46G62     N/A  VSB 1/16WCI   5
$$

VTZ005-007-008-251700-
VERMONT

CITY           SKY/WX    TMP DP  RH WIND       PRES   REMARKS
MONTPELIER     MOSUNNY   52  36  54 NW12G21   30.19F
BURLINGTON     MOSUNNY   57  34  41 NW14G24   30.20S
$$

MAZ007-012-024-CTZ003-RIZ002-NYZ038-NYZ072-251700-
SOUTHERN NEW ENGLAND AND NY

CITY           SKY/WX    TMP DP  RH WIND       PRES   REMARKS
BOSTON         MOSUNNY   61  35  37 NW13G21   30.11F
WORCESTER      SUNNY     56  32  40 NW23      30.13F
NANTUCKET      MOSUNNY   60  37  42 N17G25    30.11S
PROVIDENCE     SUNNY     61  31  32 N14       30.14F
HARTFORD       SUNNY     62  34  35 NW16G22   30.17F
ALBANY         MOSUNNY   59  37  44 NW9       30.22F
NEW YORK CITY  SUNNY     64  38  38 N14       30.19F
$$

ANZ081-ANZ082-ANZ150-NHZ014-MEZ023>029-251700-
COASTAL MARINE OBSERVATIONS

STATION/POSITION TIME  TEMP    WIND        PRES    WAVE
                       AIR SEA DIR/SP/G            HT/PER
                 (UTC) (F)     (DEG/KT/KT) (MB)    (FT/S)
MOUNT DESERT ROC 1600   51     300/ 13/ 15 1016.5F
MATINICUS ROCK   1600   53     340/ 17/ 20 1016.7F
ISLE OF SHOALS   1600   56     330/ 15/ 17 1018.6F
JEFFREYS LEDGE   1538      61                N/A     4/ 5
CASHES LEDGE BUO 1550   54 60  310/ 17/ 23 1017.6R   5/ 6
GEORGES BANK BUO 1450   57 63              1015.3    8/ 7
$$

.............KEY..............
   WCI - WIND CHILL
   TC  - TEMPERATURE IN CELSIUS
   VSB - VISIBILITY IN MILES
   HX  - HEAT INDEX
   FAIR- INDICATES FEW OR NO CLOUDS BELOW 12,000 FT, WITH NO
         SIGNIFICANT WEATHER AND/OR OBSTRUCTIONS TO VISIBILITY.





USA.gov is the U.S. government's official web portal to all federal, state and local government web resources and services.